Sacramento, CA

5:42 PM PST on December 05, 2016 (GMT -0800)
Sacramento Executive

Weather History for KSAC - January, 2013

Change the Weather History Date:

Thursday, January 3, 2013

  Actual Average Record
Temperature  
Mean Temperature 40 °F -  
Max Temperature 53 °F 52 °F 66 °F (2014)
Min Temperature 27 °F 38 °F 24 °F (1950)
Degree Days  
Heating Degree Days 25    
Cooling Degree Days 0    
Moisture  
Dew Point 32 °F    
Average Humidity 73    
Maximum Humidity 92    
Minimum Humidity 54    
Precipitation  
Precipitation 0.00 in 0.12 in 0.65 in (1987)
Month to date precipitation 0.00 0.35  
Year to date precipitation 0.00 0.35  
Since 1 July precipitation 11.29  
Sea Level Pressure  
Sea Level Pressure 30.25 in    
Wind  
Wind Speed 0 mph (NW)    
Max Wind Speed 7 mph    
Max Gust Speed 12 mph    
Visibility 7 miles    
Events      
T = Trace of Precipitation, MM = Missing Value Source: NWS Daily Summary

Daily Weather History Graph

Daily Weather History Graph

Search for Another Location

Airport or City:

Trip Planner

Search our weather history database for the weather conditions in past years. The results will help you decide how hot, cold, wet, or windy it might be!

Date:

Astronomy

Jan. 03, 2013 Rise Set
Actual Time 7:23 AM PST 4:57 PM PST
Civil Twilight 6:54 AM PST 5:27 PM PST
Nautical Twilight 6:21 AM PST 6:00 PM PST
Astronomical Twilight 5:48 AM PST 6:32 PM PST
Moon 11:33 PM PST (1/3) 10:42 AM PST (1/3)
Length of Visible Light 10h 33m
Length of Day
9h 34m
Waning Gibbous, 64% of the Moon is Illuminated
Jan 3
Waning Gibbous
Jan 4
Last Quarter
Jan 11
New
Jan 18
First Quarter
Jan 26
Full

Hourly Weather History & Observations

Time (PST) Temp. Windchill Dew Point Humidity Pressure Visibility Wind Dir Wind Speed Gust Speed Precip Events Conditions
12:53 AM 32.0 °F - 28.0 °F 85% 30.20 in 7.0 mi Calm Calm - N/A   Clear
1:53 AM 30.9 °F - 28.0 °F 89% 30.21 in 3.0 mi Calm Calm - N/A   Clear
2:53 AM 28.9 °F - 27.0 °F 92% 30.22 in 5.0 mi Calm Calm - N/A   Clear
3:50 AM 30.2 °F - 26.6 °F 86% 30.21 in 2.5 mi Calm Calm - N/A   Clear
3:53 AM 30.0 °F - 27.0 °F 88% 30.21 in 2.5 mi Calm Calm - N/A   Clear
4:00 AM 30.2 °F - 26.6 °F 86% 30.21 in 3.0 mi Calm Calm - N/A   Clear
4:53 AM 28.9 °F 25.2 °F 26.1 °F 89% 30.19 in 6.0 mi ENE 3.5 mph - N/A   Clear
5:53 AM 28.9 °F - 27.0 °F 92% 30.22 in 3.0 mi Calm Calm - N/A   Clear
6:53 AM 28.0 °F - 26.1 °F 92% 30.23 in 5.0 mi Calm Calm - N/A   Clear
7:53 AM 28.9 °F - 27.0 °F 92% 30.24 in 3.0 mi Calm Calm - N/A   Clear
8:53 AM 36.0 °F - 32.0 °F 86% 30.26 in 5.0 mi Calm Calm - N/A   Clear
9:53 AM 43.0 °F - 36.0 °F 76% 30.28 in 8.0 mi Calm Calm - N/A   Clear
10:53 AM 46.0 °F - 35.1 °F 66% 30.29 in 7.0 mi Calm Calm - N/A   Clear
11:53 AM 48.9 °F - 35.1 °F 59% 30.27 in 9.0 mi Calm Calm - N/A   Clear
12:53 PM 51.1 °F - 35.1 °F 54% 30.25 in 10.0 mi Calm Calm - N/A   Clear
1:53 PM 52.0 °F - 36.0 °F 54% 30.24 in 10.0 mi Calm Calm - N/A   Overcast
2:53 PM 52.0 °F - 36.0 °F 54% 30.24 in 10.0 mi WNW 4.6 mph - N/A   Scattered Clouds
3:53 PM 51.1 °F - 37.0 °F 59% 30.24 in 10.0 mi WNW 4.6 mph - N/A   Clear
4:53 PM 48.0 °F - 37.0 °F 66% 30.25 in 10.0 mi NW 4.6 mph - N/A   Partly Cloudy
5:53 PM 45.0 °F - 36.0 °F 71% 30.25 in 10.0 mi Calm Calm - N/A   Overcast
6:53 PM 43.0 °F - 35.1 °F 74% 30.26 in 10.0 mi Calm Calm - N/A   Clear
7:53 PM 41.0 °F - 35.1 °F 79% 30.27 in 10.0 mi Calm Calm - N/A   Clear
8:53 PM 37.9 °F - 34.0 °F 86% 30.27 in 10.0 mi Calm Calm - N/A   Clear
9:53 PM 37.9 °F - 34.0 °F 86% 30.29 in 8.0 mi Calm Calm - N/A   Clear
10:53 PM 36.0 °F - 34.0 °F 93% 30.29 in 6.0 mi Calm Calm - N/A   Clear
11:53 PM 36.0 °F - 34.0 °F 93% 30.28 in 3.0 mi Calm Calm - N/A   Clear
11:56 PM 35.6 °F - 33.8 °F 93% 30.28 in 1.8 mi Calm Calm - N/A   Clear